Lafayette, LA

8:25 AM CDT on April 24, 2017 (GMT -0500)
Lafayette Regional

Weather History for KLFT - April, 2012

Change the Weather History Date:

Sunday, April 15, 2012

  Actual Average Record
Temperature  
Mean Temperature 76 °F 69 °F  
Max Temperature 83 °F 79 °F 89 °F (1912)
Min Temperature 69 °F 58 °F 37 °F (2008)
Degree Days  
Heating Degree Days 0 1  
Month to date heating degree days 0 30  
Since 1 July heating degree days 1029 1410  
Cooling Degree Days 11 5  
Month to date cooling degree days 121 63  
Year to date cooling degree days 360 158  
Growing Degree Days 26 (Base 50)    
Moisture  
Dew Point 68 °F    
Average Humidity 76    
Maximum Humidity 90    
Minimum Humidity 62    
Precipitation  
Precipitation 0.00 in 0.14 in 2.75 in (1967)
Month to date precipitation 2.17 1.83  
Year to date precipitation 19.71 15.74  
Snow  
Snow 0.00 in 0.00 in 0.00 in ()
Month to date snowfall 0.0 0.0  
Since 1 July snowfall 0.0 T  
Snow Depth 0.00 in    
Sea Level Pressure  
Sea Level Pressure 29.95 in    
Wind  
Wind Speed 12 mph (South)    
Max Wind Speed 24 mph    
Max Gust Speed 35 mph    
Visibility 10 miles    
Events      
T = Trace of Precipitation, MM = Missing Value Source: NWS Daily Summary

Daily Weather History Graph

Daily Weather History Graph

Search for Another Location

Airport or City:

Trip Planner

Search our weather history database for the weather conditions in past years. The results will help you decide how hot, cold, wet, or windy it might be!

Date:

Astronomy

Apr. 15, 2012 Rise Set
Actual Time 6:40 AM CDT 7:35 PM CDT
Civil Twilight 6:15 AM CDT 8:00 PM CDT
Nautical Twilight 5:46 AM CDT 8:29 PM CDT
Astronomical Twilight 5:16 AM CDT 8:59 PM CDT
Moon 3:15 AM CDT (4/15) 2:51 PM CDT (4/15)
Length of Visible Light 13h 44m
Length of Day
12h 55m
Waning Crescent, 27% of the Moon is Illuminated
Apr 15
Waning Crescent
Apr 21
New
Apr 29
First Quarter
May 5
Full
May 12
Last Quarter

Hourly Weather History & Observations

Time (CDT) Temp. Heat Index Dew Point Humidity Pressure Visibility Wind Dir Wind Speed Gust Speed Precip Events Conditions
12:53 AM 71.1 °F - 66.0 °F 84% 29.96 in 10.0 mi SSE 6.9 mph - N/A   Clear
1:53 AM 71.1 °F - 66.0 °F 84% 29.94 in 10.0 mi Variable 6.9 mph - N/A   Clear
2:53 AM 70.0 °F - 66.0 °F 87% 29.92 in 10.0 mi SSE 4.6 mph - N/A   Clear
3:34 AM 69.8 °F - 64.4 °F 83% 29.92 in 10.0 mi Variable 5.8 mph - N/A   Mostly Cloudy
3:45 AM 69.8 °F - 66.2 °F 88% 29.92 in 10.0 mi SSE 5.8 mph - N/A   Scattered Clouds
3:53 AM 70.0 °F - 64.9 °F 84% 29.92 in 10.0 mi Variable 5.8 mph - N/A   Scattered Clouds
4:53 AM 69.1 °F - 64.9 °F 87% 29.92 in 10.0 mi Variable 3.5 mph - N/A   Partly Cloudy
5:53 AM 69.1 °F - 64.9 °F 87% 29.92 in 10.0 mi SE 3.5 mph - N/A   Partly Cloudy
6:53 AM 73.0 °F - 66.0 °F 79% 29.91 in 10.0 mi South 12.7 mph 19.6 mph N/A   Clear
7:53 AM 73.9 °F - 66.9 °F 79% 29.94 in 10.0 mi South 12.7 mph 17.3 mph N/A   Partly Cloudy
8:35 AM 75.2 °F - 68.0 °F 78% 29.96 in 9.0 mi South 12.7 mph 26.5 mph N/A   Mostly Cloudy
8:53 AM 75.9 °F - 68.0 °F 76% 29.96 in 9.0 mi South 12.7 mph 20.7 mph N/A   Mostly Cloudy
9:00 AM 77.0 °F - 68.0 °F 74% 29.97 in 9.0 mi South 17.3 mph 24.2 mph N/A   Overcast
9:53 AM 80.1 °F 82.7 °F 68.0 °F 67% 29.97 in 9.0 mi South 16.1 mph 28.8 mph N/A   Overcast
10:28 AM 80.6 °F 82.7 °F 66.2 °F 61% 29.97 in 9.0 mi South 19.6 mph 27.6 mph N/A   Mostly Cloudy
10:53 AM 80.1 °F 82.7 °F 68.0 °F 67% 29.98 in 9.0 mi South 18.4 mph 26.5 mph N/A   Overcast
11:02 AM 80.6 °F 83.2 °F 68.0 °F 65% 29.98 in 9.0 mi South 17.3 mph 27.6 mph N/A   Overcast
11:53 AM 81.0 °F 83.3 °F 66.9 °F 62% 29.97 in 9.0 mi South 16.1 mph 28.8 mph N/A   Overcast
12:00 PM 80.6 °F 82.7 °F 66.2 °F 61% 29.98 in 9.0 mi South 19.6 mph 28.8 mph N/A   Overcast
12:53 PM 80.1 °F 82.7 °F 68.0 °F 67% 29.96 in 9.0 mi SSE 21.9 mph 28.8 mph N/A   Overcast
1:14 PM 80.6 °F 83.2 °F 68.0 °F 65% 29.96 in 9.0 mi South 12.7 mph 25.3 mph N/A   Overcast
1:53 PM 82.0 °F 84.9 °F 68.0 °F 62% 29.95 in 10.0 mi South 16.1 mph 26.5 mph N/A   Mostly Cloudy
2:12 PM 82.4 °F 85.4 °F 68.0 °F 62% 29.95 in 9.0 mi South 17.3 mph 28.8 mph N/A   Mostly Cloudy
2:53 PM 82.0 °F 84.9 °F 68.0 °F 62% 29.95 in 10.0 mi South 16.1 mph 25.3 mph N/A   Mostly Cloudy
3:53 PM 82.0 °F 84.9 °F 68.0 °F 62% 29.94 in 10.0 mi South 15.0 mph 26.5 mph N/A   Mostly Cloudy
4:53 PM 81.0 °F 83.8 °F 68.0 °F 65% 29.94 in 10.0 mi South 18.4 mph 25.3 mph N/A   Scattered Clouds
5:37 PM 80.6 °F 83.2 °F 68.0 °F 65% 29.95 in 10.0 mi South 16.1 mph 24.2 mph N/A   Mostly Cloudy
5:45 PM 80.6 °F 83.2 °F 68.0 °F 65% 29.95 in 10.0 mi South 15.0 mph 26.5 mph N/A   Mostly Cloudy
5:53 PM 80.1 °F 82.9 °F 69.1 °F 69% 29.95 in 10.0 mi South 16.1 mph 27.6 mph N/A   Mostly Cloudy
6:02 PM 80.6 °F 83.2 °F 68.0 °F 65% 29.95 in 10.0 mi South 11.5 mph 21.9 mph N/A   Mostly Cloudy
6:53 PM 79.0 °F - 69.1 °F 72% 29.95 in 10.0 mi South 9.2 mph 20.7 mph N/A   Mostly Cloudy
7:53 PM 77.0 °F - 69.1 °F 76% 29.95 in 10.0 mi SSE 10.4 mph 17.3 mph N/A   Partly Cloudy
8:53 PM 75.9 °F - 70.0 °F 82% 29.96 in 10.0 mi SSE 10.4 mph - N/A   Overcast
9:31 PM 75.2 °F - 69.8 °F 83% 29.97 in 9.0 mi SSE 10.4 mph 17.3 mph N/A   Mostly Cloudy
9:53 PM 75.0 °F - 71.1 °F 87% 29.97 in 9.0 mi SSE 9.2 mph 17.3 mph N/A   Overcast
10:53 PM 75.0 °F - 71.1 °F 87% 29.98 in 8.0 mi South 8.1 mph - N/A   Overcast
11:53 PM 75.0 °F - 70.0 °F 84% 29.98 in 9.0 mi South 10.4 mph - N/A   Mostly Cloudy